Temp
-6 -6 -5 -5 -5 -5 -5 -6 -6 -7 -6 -6 -6 -6 -6 -6 -6 -6 -5 -5 -5 -5 -5 -5 -4 -4 -4 -4 -4 -4 -4 -4 -4 -6 -7 -8 -8 -9 -8 -8 -7 -7 -8 -8 -8 -8 -8
-5 -6 -6 -6 -5 -5 -5 -5 -6 -6 -6 -6 -6 -6 -6 -6 -6 -6 -5 -5 -5 -5 -5 -5 -5 -4 -4 -4 -4 -4 -4 -4 -5 -6 -7 -8 -8 -9 -8 -8 -8 -8 -8 -8 -8 -8 -8
-6 -6 -6 -6 -6 -6 -6 -5 -5 -6 -6 -6 -6 -6 -6 -6 -6 -6 -5 -5 -5 -5 -5 -5 -5 -5 -4 -4 -4 -4 -4 -4 -5 -6 -7 -8 -8 -8 -9 -8 -8 -8 -8 -8 -8 -8 -9
-6 -6 -6 -6 -6 -6 -6 -6 -5 -6 -6 -6 -6 -6 -6 -6 -6 -6 -5 -5 -5 -5 -5 -5 -5 -5 -5 -5 -5 -4 -4 -4 -5 -6 -7 -7 -8 -8 -9 -8 -8 -8 -8 -9 -8 -8 -9
-7 -7 -6 -6 -6 -6 -6 -6 -6 -6 -6 -6 -6 -6 -6 -6 -6 -6 -5 -5 -5 -5 -5 -5 -5 -5 -5 -5 -5 -5 -4 -4 -5 -6 -7 -8 -8 -8 -8 -9 -9 -8 -8 -8 -8 -8 -9
-7 -7 -7 -6 -6 -6 -6 -6 -6 -6 -6 -6 -6 -6 -5 -5 -5 -5 -5 -5 -5 -5 -5 -5 -5 -5 -5 -5 -5 -5 -5 -5 -5 -6 -7 -8 -9 -9 -9 -9 -8 -9 -9 -8 -9 -8 -9
-7 -7 -7 -7 -6 -6 -6 -6 -6 -6 -6 -6 -6 -6 -6 -5 -5 -5 -5 -5 -5 -5 -5 -5 -5 -5 -5 -5 -5 -5 -5 -5 -5 -6 -7 -8 -9 -9 -9 -8 -8 -8 -8 -8 -9 -9 -9
-8 -8 -7 -7 -7 -7 -6 -6 -6 -6 -6 -6 -6 -6 -6 -6 -6 -6 -6 -5 -5 -5 -5 -5 -5 -5 -5 -5 -5 -5 -5 -5 -5 -6 -7 -8 -9 -9 -9 -9 -9 -9 -9 -9 -9 -9 -8
-8 -8 -8 -7 -7 -7 -7 -6 -6 -6 -6 -6 -6 -6 -6 -6 -6 -6 -6 -6 -5 -5 -5 -5 -5 -5 -5 -6 -6 -5 -6 -6 -6 -7 -7 -10 -9 -9 -10 -9 -9 -9 -9 -9 -9 -8 -8
-8 -8 -8 -8 -7 -7 -7 -7 -6 -6 -6 -6 -6 -6 -6 -6 -6 -6 -6 -6 -6 -6 -6 -6 -6 -5 -5 -6 -6 -6 -6 -6 -6 -7 -7 -9 -9 -8 -9 -9 -9 -9 -9 -9 -9 -8 -8
-9 -8 -8 -8 -8 -7 -7 -7 -7 -7 -7 -6 -6 -6 -6 -6 -6 -6 -6 -6 -6 -6 -6 -6 -5 -5 -6 -6 -6 -6 -6 -6 -6 -6 -7 -7 -8 -7 -8 -9 -9 -9 -9 -9 -9 -9 -8
-9 -9 -8 -8 -8 -8 -8 -8 -7 -7 -7 -7 -7 -7 -7 -7 -7 -7 -7 -7 -7 -7 -6 -6 -5 -5 -6 -6 -6 -6 -6 -6 -6 -6 -6 -7 -7 -7 -8 -9 -9 -9 -9 -9 -9 -9 -8
-9 -9 -9 -9 -9 -9 -8 -8 -8 -8 -7 -7 -7 -7 -7 -7 -7 -7 -7 -7 -7 -7 -6 -6 -6 -6 -6 -6 -6 -6 -6 -6 -6 -6 -6 -6 -6 -7 -7 -9 -9 -9 -9 -8 -8 -8 -8
-10 -10 -10 -9 -9 -9 -9 -9 -8 -8 -7 -7 -7 -7 -7 -7 -7 -8 -7 -7 -7 -7 -7 -6 -6 -6 -6 -6 -6 -6 -6 -6 -6 -6 -7 -7 -7 -7 -8 -9 -9 -9 -9 -7 -7 -7 -7
-11 -10 -10 -10 -9 -9 -9 -9 -9 -9 -8 -7 -8 -8 -8 -8 -8 -8 -8 -8 -8 -7 -7 -7 -7 -7 -6 -6 -6 -7 -6 -6 -6 -6 -7 -7 -9 -9 -8 -9 -9 -9 -9 -8 -8 -8 -8
-11 -11 -11 -10 -10 -10 -9 -9 -9 -9 -9 -8 -8 -8 -8 -8 -8 -8 -8 -8 -8 -7 -7 -7 -7 -7 -7 -7 -7 -6 -6 -6 -6 -7 -7 -7 -9 -9 -9 -9 -9 -9 -9 -8 -8 -8 -8
-12 -11 -11 -11 -10 -10 -10 -10 -9 -9 -9 -9 -9 -9 -9 -9 -9 -9 -9 -9 -8 -8 -8 -8 -8 -8 -7 -7 -7 -7 -7 -7 -6 -7 -7 -7 -9 -9 -9 -9 -9 -9 -8 -8 -8 -8 -8
-12 -12 -11 -11 -11 -10 -10 -10 -10 -10 -10 -10 -10 -9 -9 -9 -9 -9 -9 -9 -9 -9 -9 -9 -8 -8 -8 -8 -7 -7 -7 -7 -7 -7 -6 -8 -9 -9 -9 -9 -9 -9 -8 -8 -8 -8 -8
-12 -12 -12 -11 -11 -11 -11 -10 -10 -10 -10 -10 -10 -10 -10 -10 -10 -10 -10 -10 -9 -9 -9 -9 -9 -9 -8 -8 -8 -7 -7 -7 -7 -7 -7 -8 -8 -9 -9 -9 -9 -9 -8 -9 -8 -8 -8
-13 -12 -12 -11 -11 -11 -11 -11 -10 -10 -10 -11 -11 -10 -10 -11 -11 -10 -10 -10 -10 -10 -10 -10 -10 -10 -9 -9 -8 -8 -7 -8 -7 -7 -7 -9 -9 -9 -8 -8 -8 -9 -9 -9 -9 -8 -8
-13 -12 -12 -12 -11 -11 -11 -11 -11 -11 -11 -11 -11 -11 -11 -11 -11 -11 -10 -10 -10 -10 -10 -10 -10 -10 -10 -9 -9 -8 -9 -8 -8 -8 -8 -8 -9 -9 -9 -9 -9 -9 -9 -9 -9 -9 -9
-13 -13 -12 -12 -12 -12 -11 -12 -11 -11 -11 -11 -11 -12 -12 -12 -11 -11 -11 -11 -11 -11 -11 -11 -10 -10 -10 -10 -10 -9 -9 -9 -9 -9 -9 -9 -9 -9 -9 -9 -9 -9 -9 -9 -9 -9 -9
-13 -13 -12 -12 -12 -12 -12 -12 -12 -12 -12 -12 -12 -12 -12 -12 -11 -11 -11 -11 -11 -11 -11 -11 -11 -10 -10 -10 -10 -10 -10 -10 -9 -9 -9 -9 -9 -9 -9 -9 -9 -9 -9 -9 -9 -9 -9
-13 -13 -13 -12 -12 -12 -12 -12 -12 -12 -12 -12 -12 -12 -12 -12 -11 -11 -11 -11 -11 -11 -11 -11 -11 -11 -11 -10 -10 -10 -10 -10 -9 -9 -9 -9 -9 -9 -9 -9 -9 -9 -9 -9 -9 -9 -9
-13 -13 -13 -12 -12 -12 -12 -12 -12 -12 -12 -12 -12 -12 -12 -12 -12 -11 -11 -11 -11 -11 -11 -12 -11 -11 -11 -11 -11 -11 -10 -10 -9 -9 -9 -9 -9 -9 -9 -9 -9 -9 -9 -10 -10 -10 -9
-13 -13 -12 -12 -12 -12 -12 -12 -12 -12 -12 -12 -12 -12 -12 -12 -11 -12 -11 -11 -11 -12 -11 -12 -12 -12 -11 -11 -11 -10 -10 -10 -10 -10 -10 -10 -10 -10 -10 -10 -9 -9 -9 -9 -10 -9 -9
-13 -13 -12 -12 -12 -12 -12 -12 -12 -12 -13 -12 -12 -12 -12 -12 -11 -12 -11 -11 -12 -12 -12 -12 -12 -12 -12 -11 -11 -11 -11 -11 -11 -11 -10 -10 -10 -9 -10 -10 -10 -10 -9 -9 -10 -10 -10
-13 -13 -12 -12 -12 -12 -12 -12 -12 -12 -13 -13 -12 -12 -12 -12 -12 -12 -12 -12 -11 -12 -12 -12 -12 -12 -12 -12 -12 -12 -12 -12 -11 -11 -10 -10 -10 -10 -10 -10 -11 -11 -10 -10 -10 -10 -10
-13 -13 -12 -12 -12 -12 -12 -12 -12 -12 -13 -13 -12 -12 -12 -12 -12 -12 -12 -12 -12 -12 -12 -12 -12 -12 -12 -12 -12 -12 -12 -11 -11 -12 -11 -11 -11 -11 -11 -11 -11 -11 -11 -11 -11 -11 -10
Height
5885 5887 5888 5888 5889 5890 5890 5891 5893 5894 5896 5898 5900 5902 5903 5905 5907 5908 5909 5911 5912 5913 5913 5914 5914 5914 5915 5916 5916 5916 5917 5918 5919 5920 5923 5925 5928 5930 5934 5935 5936 5935 5934 5934 5932 5931 5929
5882 5883 5885 5886 5886 5887 5888 5889 5891 5893 5894 5896 5898 5900 5902 5903 5905 5907 5908 5909 5910 5911 5912 5913 5913 5913 5914 5915 5915 5916 5916 5917 5918 5920 5922 5925 5927 5931 5934 5936 5936 5936 5935 5935 5933 5932 5930
5878 5880 5881 5882 5884 5885 5886 5887 5888 5890 5892 5894 5896 5897 5899 5901 5903 5905 5906 5908 5909 5910 5911 5912 5912 5913 5913 5914 5914 5915 5916 5917 5918 5919 5921 5924 5927 5930 5933 5935 5936 5936 5936 5935 5934 5933 5932
5873 5875 5877 5879 5880 5881 5883 5884 5886 5887 5889 5891 5892 5894 5896 5898 5900 5902 5904 5905 5907 5908 5908 5909 5910 5911 5912 5913 5913 5914 5915 5916 5917 5919 5921 5924 5926 5930 5932 5934 5936 5937 5937 5938 5936 5935 5934
5868 5870 5872 5874 5876 5878 5879 5880 5882 5883 5885 5887 5889 5890 5893 5894 5897 5899 5901 5903 5904 5904 5905 5906 5908 5909 5911 5911 5912 5913 5915 5916 5917 5919 5921 5924 5926 5929 5933 5936 5938 5938 5943 5938 5937 5936 5935
5863 5865 5867 5869 5871 5873 5875 5876 5878 5879 5881 5882 5884 5886 5888 5890 5892 5895 5896 5899 5900 5901 5902 5903 5905 5907 5908 5909 5910 5911 5913 5915 5916 5918 5921 5923 5927 5931 5935 5939 5943 5939 5939 5938 5937 5937 5935
5857 5859 5862 5863 5866 5868 5870 5871 5873 5874 5875 5877 5878 5880 5882 5884 5887 5890 5892 5894 5896 5898 5899 5900 5901 5902 5904 5906 5907 5909 5911 5913 5915 5917 5919 5922 5928 5935 5930 5931 5934 5935 5936 5936 5937 5936 5936
5851 5854 5856 5857 5860 5862 5864 5865 5867 5868 5870 5872 5873 5875 5877 5878 5881 5884 5886 5888 5890 5893 5894 5896 5896 5898 5900 5901 5903 5905 5908 5911 5913 5916 5917 5921 5925 5925 5927 5930 5932 5934 5936 5937 5937 5936 5935
5846 5848 5850 5852 5854 5856 5858 5859 5861 5862 5864 5866 5867 5869 5871 5872 5875 5878 5880 5882 5884 5887 5889 5890 5891 5892 5895 5897 5898 5901 5904 5907 5910 5913 5915 5919 5928 5923 5925 5929 5931 5936 5935 5935 5936 5935 5934
5840 5843 5845 5846 5848 5850 5852 5853 5854 5856 5857 5859 5861 5862 5865 5867 5871 5873 5874 5876 5879 5882 5884 5886 5887 5888 5890 5891 5894 5897 5900 5904 5907 5910 5912 5915 5918 5919 5923 5926 5929 5936 5933 5934 5934 5935 5939
5834 5837 5838 5840 5841 5844 5846 5847 5848 5849 5850 5851 5854 5855 5858 5861 5864 5867 5870 5871 5874 5877 5878 5880 5881 5884 5885 5888 5891 5893 5896 5899 5902 5905 5908 5911 5912 5915 5919 5924 5926 5930 5931 5932 5933 5933 5933
5828 5831 5832 5833 5835 5837 5840 5840 5841 5842 5843 5844 5847 5848 5851 5854 5857 5860 5863 5866 5869 5873 5872 5875 5877 5879 5881 5884 5886 5889 5892 5895 5898 5900 5903 5906 5908 5912 5916 5919 5923 5927 5929 5931 5931 5932 5934
5822 5824 5825 5827 5829 5831 5833 5834 5835 5836 5836 5838 5840 5841 5844 5847 5850 5853 5857 5860 5864 5865 5869 5871 5873 5875 5878 5880 5883 5885 5889 5892 5895 5898 5900 5903 5905 5910 5913 5917 5922 5925 5929 5934 5935 5934 5935
5816 5817 5820 5821 5823 5825 5828 5828 5830 5830 5831 5832 5834 5835 5838 5840 5843 5847 5851 5855 5857 5860 5863 5867 5869 5871 5874 5876 5879 5881 5885 5888 5891 5894 5898 5901 5904 5907 5912 5915 5923 5923 5929 5934 5934 5934 5934
5809 5812 5813 5815 5817 5819 5821 5823 5825 5826 5826 5827 5828 5829 5831 5834 5837 5841 5845 5848 5851 5854 5858 5862 5864 5867 5870 5873 5876 5879 5882 5885 5887 5891 5896 5898 5903 5905 5909 5913 5918 5921 5923 5928 5929 5929 5928
5804 5806 5807 5810 5812 5814 5815 5817 5819 5820 5821 5822 5823 5824 5826 5829 5831 5835 5839 5843 5845 5849 5853 5856 5861 5864 5867 5870 5873 5876 5878 5882 5884 5888 5891 5896 5903 5904 5908 5912 5915 5918 5921 5924 5926 5928 5928
5799 5801 5803 5805 5807 5809 5810 5812 5813 5816 5816 5817 5818 5819 5821 5823 5826 5830 5834 5837 5840 5843 5847 5851 5855 5860 5864 5867 5870 5873 5876 5879 5881 5883 5887 5892 5900 5902 5906 5910 5917 5916 5918 5920 5924 5924 5925
5795 5796 5798 5799 5801 5803 5805 5806 5809 5810 5811 5812 5812 5815 5816 5818 5822 5824 5828 5831 5834 5838 5843 5846 5851 5856 5861 5864 5867 5870 5873 5874 5878 5881 5885 5890 5898 5902 5907 5906 5909 5912 5916 5919 5921 5922 5920
5789 5791 5793 5794 5796 5798 5800 5802 5803 5804 5806 5806 5808 5809 5810 5812 5815 5819 5823 5827 5829 5833 5838 5843 5847 5852 5857 5861 5865 5867 5869 5871 5875 5879 5883 5886 5892 5898 5901 5906 5907 5910 5912 5914 5917 5918 5919
5784 5786 5787 5789 5791 5793 5795 5796 5797 5799 5800 5802 5803 5804 5804 5806 5810 5814 5817 5820 5824 5828 5834 5839 5844 5849 5855 5859 5862 5865 5867 5869 5873 5876 5879 5884 5891 5895 5904 5907 5908 5907 5909 5910 5912 5917 5915
5779 5781 5782 5784 5785 5788 5790 5791 5792 5793 5794 5797 5797 5798 5798 5801 5804 5808 5812 5815 5818 5823 5830 5836 5842 5847 5852 5857 5860 5863 5866 5869 5872 5874 5877 5881 5886 5891 5897 5898 5901 5903 5905 5906 5907 5909 5908
5773 5776 5777 5779 5780 5782 5784 5786 5787 5789 5790 5791 5792 5793 5794 5796 5800 5803 5806 5810 5814 5819 5827 5832 5838 5843 5849 5854 5859 5862 5866 5869 5871 5874 5877 5880 5884 5887 5890 5894 5897 5900 5900 5901 5902 5902 5902
5768 5771 5773 5773 5775 5777 5779 5781 5783 5784 5785 5786 5787 5789 5790 5793 5796 5799 5802 5806 5810 5817 5823 5829 5835 5841 5846 5851 5856 5860 5863 5866 5870 5873 5876 5879 5882 5885 5888 5890 5893 5894 5896 5896 5897 5896 5896
5762 5765 5767 5769 5770 5772 5774 5776 5778 5779 5780 5782 5783 5785 5786 5789 5792 5796 5799 5803 5807 5813 5820 5825 5831 5837 5843 5847 5852 5857 5860 5864 5867 5869 5873 5876 5878 5881 5885 5886 5886 5889 5889 5890 5890 5890 5889
5756 5760 5762 5764 5766 5768 5770 5772 5773 5774 5775 5777 5779 5781 5783 5786 5789 5792 5796 5800 5804 5809 5816 5822 5827 5832 5837 5843 5848 5851 5855 5859 5862 5865 5868 5871 5874 5876 5877 5880 5883 5881 5882 5883 5884 5884 5881
5750 5754 5757 5759 5761 5763 5765 5767 5769 5770 5771 5773 5774 5776 5779 5782 5785 5789 5792 5796 5801 5806 5812 5818 5824 5828 5833 5834 5840 5845 5851 5855 5855 5859 5862 5865 5867 5870 5869 5874 5876 5876 5872 5875 5877 5878 5874
5744 5748 5751 5754 5757 5759 5761 5763 5764 5766 5767 5769 5770 5773 5775 5777 5781 5785 5789 5793 5797 5802 5808 5813 5819 5825 5829 5832 5837 5840 5841 5845 5848 5850 5854 5857 5860 5861 5863 5863 5868 5863 5866 5868 5870 5874 5867
5736 5741 5745 5749 5751 5754 5757 5758 5760 5762 5763 5765 5766 5768 5771 5773 5776 5780 5784 5789 5793 5798 5803 5809 5815 5819 5824 5828 5833 5834 5838 5838 5844 5845 5847 5849 5851 5853 5853 5854 5857 5856 5858 5860 5860 5859 5859
5729 5734 5739 5743 5746 5749 5752 5754 5756 5758 5759 5760 5762 5764 5766 5769 5773 5776 5780 5785 5789 5794 5799 5803 5808 5813 5818 5822 5825 5828 5831 5834 5835 5839 5839 5842 5844 5847 5848 5851 5848 5849 5850 5850 5851 5852 5852
Wind_Speed
16 15 14 12 11 8 7 8 11 13 13 12 11 9 9 8 8 8 8 7 5 3 2 2 2 2 1 1 2 2 3 3 4 6 9 11 11 9 9 7 3 10 14 17 18 17 18
20 18 17 16 14 13 10 9 13 15 15 15 14 13 11 11 10 9 8 8 7 5 5 5 4 4 4 4 2 2 2 4 8 10 12 12 11 10 10 8 5 3 11 17 17 16 16
21 21 20 19 18 16 15 13 12 16 18 18 18 17 16 14 13 12 12 11 9 9 9 8 7 6 5 6 5 5 2 5 8 10 12 12 12 14 13 9 3 11 14 13 14 13 14
24 22 22 21 20 19 18 17 16 16 18 20 22 21 20 19 17 16 15 14 13 13 13 13 11 9 8 7 7 7 5 7 10 11 11 12 14 14 12 5 9 9 7 4 9 10 11
24 23 23 22 22 21 21 20 19 20 19 20 21 23 22 21 20 18 20 18 17 17 17 16 15 13 11 9 9 7 7 7 9 12 13 14 15 13 9 5 5 8 6 4 3 6 7
23 23 23 23 23 22 22 21 20 20 21 22 22 22 23 23 22 21 20 20 21 21 20 20 18 16 14 12 11 10 9 8 11 12 14 15 16 9 6 8 5 8 5 4 3 3 3
23 23 23 23 23 23 22 22 22 22 22 22 23 24 24 25 24 23 23 22 23 24 23 22 20 19 18 17 15 16 14 9 12 14 17 18 14 11 19 19 18 10 6 4 3 2 2
23 24 24 24 24 24 23 23 23 23 23 24 24 24 24 25 24 23 23 24 25 25 25 24 24 24 23 21 18 19 16 13 13 15 20 21 18 23 15 14 10 8 4 4 3 4 2
23 24 24 24 25 25 25 25 25 25 24 24 25 25 24 25 23 24 24 24 24 22 22 24 24 23 21 21 21 21 19 16 15 17 21 21 16 22 19 16 10 6 7 6 7 8 3
22 24 23 23 24 24 25 25 25 26 27 27 27 27 24 25 24 23 23 26 24 21 22 21 21 21 22 23 23 22 21 19 19 18 22 24 27 27 22 19 14 6 10 9 10 10 4
22 23 23 23 23 23 24 24 25 25 26 27 27 29 28 27 26 24 25 24 23 22 22 25 22 20 20 22 20 22 21 21 21 24 25 23 27 26 25 18 19 14 11 10 12 14 11
23 23 22 23 22 22 23 22 22 22 23 24 22 25 25 26 27 26 25 24 23 23 27 23 22 20 21 20 21 20 23 22 23 26 26 27 29 28 26 27 22 17 12 12 15 12 7
23 23 22 21 21 20 20 20 20 21 22 23 22 25 24 25 26 27 26 24 23 25 25 24 22 21 22 22 21 22 22 22 22 24 24 25 22 23 25 25 22 19 15 5 6 9 8
21 21 20 20 19 19 19 18 17 18 19 20 21 24 24 25 25 26 26 25 25 25 25 23 23 23 22 22 22 23 23 23 24 23 24 21 21 22 25 24 14 20 11 10 12 7 10
18 19 18 18 18 19 18 18 17 16 16 15 15 20 22 23 23 24 25 24 26 26 24 23 24 22 22 22 22 23 23 23 23 23 21 19 16 28 24 28 24 15 18 13 11 12 9
17 17 17 18 18 18 18 19 19 17 18 16 15 17 20 22 22 22 24 24 26 25 23 24 23 22 21 21 21 21 22 23 25 23 22 23 24 26 24 24 23 20 13 6 7 7 6
17 17 17 17 17 17 18 19 18 17 19 18 16 16 17 21 22 23 21 23 26 27 26 26 25 22 21 21 21 21 21 23 26 26 26 26 25 29 26 23 16 16 10 14 11 8 7
19 18 17 16 15 15 15 18 19 18 18 17 15 14 16 19 22 23 23 25 27 28 28 29 26 23 21 20 21 22 22 25 24 24 26 30 26 22 21 26 20 14 13 12 8 14 10
18 18 18 18 18 17 17 18 19 19 17 17 15 15 15 21 22 22 22 24 28 30 31 32 30 25 22 19 19 22 22 23 24 24 27 35 33 23 23 20 17 15 14 13 13 11 13
20 18 17 18 18 17 17 18 17 17 18 17 16 15 16 21 22 22 22 26 30 32 31 33 32 27 22 18 15 21 22 22 23 25 27 32 30 24 16 13 14 18 16 15 14 10 15
21 19 18 18 18 15 15 16 15 14 15 15 15 15 16 20 22 22 24 28 31 34 31 32 31 28 24 19 16 16 20 20 21 23 24 27 35 31 24 28 26 19 19 21 20 15 17
22 19 17 17 18 16 15 14 13 13 13 14 13 13 15 19 21 22 25 28 31 34 30 30 34 30 27 22 18 20 20 19 20 20 20 22 28 34 31 29 28 29 25 21 17 19 20
23 19 17 16 16 17 15 14 14 12 12 13 12 12 15 19 20 23 24 27 29 36 32 30 28 28 26 26 21 20 27 24 20 18 17 15 26 24 24 28 26 26 20 20 21 21 21
24 19 18 15 16 15 14 16 16 15 13 12 13 13 16 20 22 22 23 25 28 37 34 31 31 28 25 23 22 22 22 29 24 23 22 20 21 22 22 22 25 22 20 19 20 22 27
26 21 19 16 15 15 15 14 15 14 13 13 14 13 16 20 22 23 23 24 26 32 39 33 30 30 29 27 27 27 26 26 29 31 30 28 26 29 28 25 20 23 20 20 24 28 27
28 23 20 18 16 14 14 14 12 10 12 12 14 13 14 20 23 24 23 24 26 30 35 39 33 33 31 30 29 33 22 21 28 29 24 22 20 19 22 22 20 24 26 23 25 24 29
29 26 21 18 18 16 14 14 15 12 11 12 14 14 14 19 23 25 25 24 26 29 31 32 33 31 28 28 24 28 21 24 27 25 22 23 23 25 25 29 23 32 30 31 30 24 30
31 28 24 21 18 18 16 13 14 16 12 12 14 16 13 15 22 26 27 25 26 29 32 33 30 32 33 29 25 23 18 23 22 24 24 24 24 23 27 26 25 30 27 28 28 30 29
31 30 28 24 20 18 17 16 14 16 17 13 15 17 15 13 20 25 27 27 26 27 29 32 33 31 31 30 30 27 27 27 26 20 24 23 22 20 21 20 22 23 23 25 28 27 26
Wind_Direction
252 254 256 253 254 258 267 241 213 199 199 201 202 200 198 201 204 208 209 207 202 217 257 280 280 257 265 45 101 189 187 190 162 158 162 172 161 153 138 141 130 132 112 101 91 79 64
250 251 253 254 250 250 250 252 233 221 213 211 212 214 221 222 220 226 226 223 229 243 261 274 281 268 248 256 250 239 187 157 138 160 168 175 174 170 152 161 149 252 134 112 101 85 67
250 252 252 251 251 249 247 247 244 235 229 227 230 226 225 227 234 240 243 245 247 256 260 265 271 277 258 256 248 246 213 158 161 166 171 178 176 162 169 186 242 164 128 117 109 93 68
252 253 254 253 252 250 252 247 246 244 240 239 237 238 237 235 233 242 251 252 255 259 261 261 262 266 266 257 250 250 238 189 173 169 178 172 168 170 181 190 171 160 139 92 114 101 84
249 252 253 254 256 256 254 253 250 249 247 247 247 244 244 245 243 240 247 254 256 260 261 262 259 257 258 263 255 250 252 216 187 181 178 179 178 180 174 162 170 181 224 157 81 113 104
248 249 251 253 254 257 258 257 256 253 251 250 250 249 249 246 245 243 243 246 255 257 258 260 259 257 257 261 252 238 234 228 194 185 177 183 186 187 169 151 230 210 191 158 92 33 140
244 247 248 250 252 254 257 259 258 257 255 253 251 250 249 249 247 245 243 242 244 253 255 256 256 254 257 263 249 231 224 216 200 188 182 190 179 193 206 179 192 166 166 152 191 305 303
246 247 248 250 253 255 257 257 258 260 259 256 255 253 251 251 248 245 244 243 244 245 249 252 256 257 259 256 239 231 224 214 208 192 194 187 178 223 200 191 183 188 232 242 291 325 3
249 250 250 250 253 255 256 257 258 258 258 257 257 256 253 253 250 246 242 242 242 243 247 249 251 254 250 246 235 231 221 210 202 198 199 195 210 221 199 191 198 244 227 237 272 322 2
250 252 252 253 255 257 258 258 258 259 259 258 257 257 254 254 251 249 245 242 240 242 243 243 246 251 247 241 232 227 224 212 204 196 201 209 217 210 196 194 201 225 237 256 275 319 308
248 251 251 252 255 257 258 258 259 261 260 259 256 255 253 250 249 246 246 245 240 239 243 240 241 245 243 239 236 226 222 214 208 203 209 212 218 205 193 195 207 223 229 258 274 285 310
249 250 252 253 252 254 257 259 261 261 260 259 256 254 253 251 246 243 242 243 243 240 240 240 238 237 235 233 228 227 218 213 209 212 216 205 218 212 195 197 204 208 235 255 284 290 317
248 248 248 249 251 252 254 257 263 264 261 257 255 252 252 250 245 239 237 237 238 238 238 236 235 228 228 231 229 225 222 219 214 213 219 219 225 215 203 191 205 213 226 291 301 311 298
245 246 246 245 247 247 252 257 263 268 264 261 256 252 248 245 243 238 233 232 232 236 237 240 234 229 227 229 224 219 216 216 216 211 214 220 221 209 199 190 216 227 216 228 273 285 285
244 244 244 244 243 247 252 258 259 261 263 265 259 247 244 240 238 234 231 229 227 229 233 234 232 227 226 227 219 219 218 215 214 210 207 211 203 198 192 199 210 244 248 237 242 281 286
244 246 246 246 248 250 251 256 260 257 263 267 264 253 243 238 234 230 227 227 228 223 225 226 228 224 224 223 222 220 218 215 209 204 204 198 195 201 194 203 212 218 223 239 267 254 290
245 244 242 241 242 246 252 255 258 257 262 265 261 255 244 238 233 227 223 223 224 222 214 216 222 218 218 220 217 219 220 217 211 204 203 193 178 200 185 195 219 224 239 228 217 249 254
241 242 240 235 239 251 258 257 255 254 256 259 257 255 249 238 233 226 218 218 220 220 213 212 218 220 215 217 217 214 213 212 206 210 205 185 186 198 189 209 212 199 214 220 242 284 284
241 241 243 244 250 257 257 258 257 253 253 255 258 255 257 236 228 224 217 213 219 217 213 207 211 215 217 214 216 210 201 208 204 195 199 193 194 192 205 203 214 222 222 235 232 242 272
242 242 244 246 251 251 254 256 256 253 253 251 256 263 263 231 221 218 210 208 214 217 215 206 207 210 215 215 216 217 203 202 204 202 195 201 198 198 216 218 220 224 231 234 242 248 273
239 244 246 250 246 248 249 252 254 253 246 251 254 269 251 224 215 213 210 209 211 214 213 207 204 210 205 211 211 214 209 207 208 208 208 206 204 207 202 213 219 233 247 249 254 258 269
235 240 245 252 241 244 245 246 254 252 247 253 257 255 235 215 209 209 209 212 210 209 202 209 209 206 206 198 202 212 207 210 215 210 213 216 213 213 217 221 234 240 251 255 256 263 281
232 235 242 248 235 237 240 238 246 249 249 250 251 242 223 209 206 207 211 213 210 201 197 205 206 210 208 212 208 207 209 202 204 210 212 219 221 221 231 239 245 243 254 259 262 270 285
229 234 239 241 237 237 239 237 245 252 255 251 240 236 219 209 207 208 211 212 209 202 196 198 201 200 207 210 211 210 214 210 210 209 212 216 217 221 222 229 239 247 252 262 266 273 279
225 232 235 234 235 235 235 237 243 251 247 245 231 231 220 211 206 209 211 212 206 204 198 201 199 193 195 196 200 203 214 216 217 223 226 229 228 230 230 237 242 256 260 266 264 281 283
222 229 231 233 236 238 238 235 234 246 241 242 228 229 223 216 208 206 211 210 203 201 201 206 206 204 206 187 197 210 214 211 228 224 231 238 251 266 243 237 246 255 255 261 265 270 274
222 227 230 232 234 235 235 234 231 239 242 239 232 228 230 219 210 207 210 209 205 203 201 202 205 209 213 208 207 226 215 210 242 242 253 255 258 264 256 256 249 253 259 262 264 262 266
223 223 229 229 232 232 233 235 236 236 246 241 234 228 230 220 211 207 210 210 208 205 203 206 204 210 217 222 226 244 246 255 250 250 257 256 253 251 247 251 249 257 261 260 259 263 268
224 223 227 230 231 237 237 238 237 237 243 250 237 225 224 221 212 209 211 211 212 211 210 208 211 209 210 216 214 227 236 247 247 255 252 243 240 232 241 243 251 251 252 253 254 259 265